Wind_Speed
15 15 16 17 17 17 17 17 16 17 16 16 16 15 16 16 17 18 18 18 19 20 21 21 22 23 24 24 25 25 25 25 25 25 26 26 26 26 26 27 27 28 28
16 16 16 17 17 17 16 16 16 16 15 15 15 15 15 16 16 17 18 18 19 20 20 21 22 23 24 24 24 25 25 25 24 25 26 27 26 26 26 26 27 27 28
15 15 16 16 16 16 16 16 15 15 15 14 15 15 16 16 16 17 18 19 19 20 20 22 23 23 23 23 24 24 24 24 24 24 25 26 26 27 26 27 27 27 28
14 14 15 15 15 15 15 15 15 15 14 14 14 14 15 16 16 17 19 19 20 20 21 22 23 23 23 24 24 25 24 24 24 24 25 25 26 26 26 27 27 28 28
14 15 15 15 15 15 15 16 15 15 14 14 14 14 15 16 17 18 18 19 20 20 20 22 22 23 23 24 24 24 24 24 24 25 25 25 26 27 27 28 28 28 29
15 15 15 15 15 15 15 16 16 15 14 14 15 15 15 16 17 17 18 19 19 20 21 22 22 23 24 25 25 25 25 25 25 25 25 25 25 26 27 27 27 27 28
15 16 16 16 16 16 15 16 16 15 15 14 15 15 15 16 17 18 18 19 20 20 21 22 22 23 24 25 24 25 25 25 25 25 25 25 25 25 25 26 26 26 26
16 16 17 17 17 16 16 17 16 15 15 15 16 16 16 16 18 18 19 19 19 19 20 20 21 22 23 23 24 24 24 24 24 24 24 24 24 25 25 25 26 26 25
17 17 17 17 17 17 16 16 16 16 16 16 16 15 15 16 17 17 17 16 16 17 18 20 21 21 22 23 23 23 24 24 24 23 23 23 24 24 24 24 25 26 26
18 18 18 17 17 17 17 16 17 17 16 17 16 16 16 15 15 16 16 16 17 18 19 20 20 21 21 22 23 23 23 23 23 22 22 22 22 22 23 24 24 25 25
19 18 18 17 17 17 17 17 18 18 18 17 17 16 16 16 16 16 16 17 18 19 20 20 21 21 22 22 23 22 22 22 22 21 21 21 21 21 22 23 23 23 24
19 18 18 17 18 18 18 18 19 18 19 18 17 17 17 17 17 17 18 18 19 19 20 20 21 22 22 22 22 21 21 21 21 20 20 21 21 21 22 22 23 23 23
18 18 17 17 18 19 19 19 19 19 18 17 17 18 18 18 18 18 18 19 19 20 21 21 21 22 22 22 22 21 21 20 19 19 19 20 20 21 21 22 22 22 22
18 18 18 18 18 19 19 18 18 18 18 18 18 18 18 18 18 19 19 20 20 21 21 21 22 22 22 22 21 21 20 19 19 19 19 19 19 19 20 21 20 21 21
18 18 18 18 18 18 18 18 17 17 18 18 18 18 18 19 19 19 19 19 20 20 21 22 22 22 22 21 20 20 19 19 19 19 19 18 19 19 19 19 18 19 19
18 18 18 17 18 17 17 17 17 18 18 19 19 18 18 18 18 18 19 19 19 20 21 21 22 22 21 20 19 20 19 18 18 18 18 18 18 18 17 17 17 17 17
19 18 17 17 17 17 17 18 18 18 18 18 18 18 17 17 18 18 18 18 19 20 21 21 21 21 21 19 19 18 18 18 17 17 17 17 17 16 16 15 16 16 16
17 17 17 16 17 17 17 18 18 19 19 19 18 18 18 18 18 18 18 18 19 20 20 21 21 21 20 19 18 17 17 17 17 16 16 16 15 15 14 15 15 15 15
17 16 16 16 17 17 18 18 18 19 20 20 19 19 19 19 19 19 19 19 19 20 20 20 20 20 20 19 17 16 16 16 16 16 16 16 15 15 14 15 15 15 15
16 15 16 17 17 18 18 19 19 20 20 20 20 19 19 19 19 19 19 20 20 21 21 20 19 19 19 18 17 16 16 16 16 16 16 16 15 15 15 15 15 15 14
15 16 16 17 17 18 19 19 20 20 20 20 20 19 19 19 19 19 20 20 20 20 20 20 19 19 19 19 18 17 17 16 16 16 16 15 15 15 15 14 14 14 13
16 16 17 18 18 18 19 19 20 20 20 20 20 19 19 19 19 19 20 20 20 19 19 19 19 19 19 18 18 17 17 17 16 16 16 15 15 14 14 14 14 13 12
17 17 17 18 19 19 19 20 20 20 20 20 19 19 19 19 19 19 20 20 20 19 20 20 19 19 19 18 18 17 17 16 16 15 15 15 15 14 13 13 12 12 12
18 18 19 19 19 19 19 19 19 19 20 19 18 18 18 18 19 19 19 19 20 20 20 19 19 18 18 17 17 17 16 16 15 14 14 14 14 14 13 12 12 12 12
19 19 19 19 19 19 19 18 18 19 19 19 19 18 19 19 19 19 19 19 19 19 19 19 18 18 17 17 16 16 16 16 15 15 14 14 14 14 13 13 13 13 12
18 19 18 18 19 19 19 18 18 19 19 19 19 19 19 19 19 19 19 19 19 18 18 18 18 18 17 17 16 16 15 15 15 14 14 15 15 14 14 14 13 13 12
Wind_Direction
322 320 318 318 317 315 313 308 302 298 296 292 289 285 282 281 282 281 281 280 280 280 280 280 282 284 284 282 281 280 277 274 271 269 268 268 268 266 265 264 262 262 261
326 323 321 320 319 318 318 314 311 306 300 294 288 285 284 284 284 284 282 284 284 283 282 282 284 285 286 286 285 285 281 277 274 271 269 267 266 266 263 264 263 262 261
327 324 324 323 321 322 322 319 318 314 307 300 294 291 288 287 285 285 284 285 287 285 285 286 288 288 287 288 288 287 283 279 275 272 270 269 267 266 264 264 263 264 263
328 327 327 327 326 325 325 323 319 316 309 304 300 297 295 293 291 289 290 289 288 288 287 288 289 288 288 288 289 288 285 282 277 273 270 267 267 267 265 265 263 264 264
331 331 331 330 329 328 326 325 322 318 312 310 306 302 300 297 295 295 295 294 292 290 289 289 289 288 287 288 290 289 286 284 281 276 272 268 268 268 268 266 265 264 264
332 333 333 332 332 329 326 325 324 321 316 311 309 307 304 302 299 297 295 295 294 292 290 290 291 291 289 289 289 288 287 286 283 279 276 274 275 272 268 267 266 264 264
331 332 333 334 334 332 330 329 326 321 318 318 315 312 309 307 303 301 296 294 294 294 293 293 293 292 292 290 289 289 289 287 284 281 279 277 279 277 273 269 265 265 265
334 334 334 334 332 331 329 329 328 324 321 320 318 314 311 308 306 304 300 298 297 299 299 298 295 294 296 294 293 294 292 290 286 282 283 281 279 278 276 273 268 266 267
335 333 334 334 334 332 329 330 330 326 324 323 320 316 312 311 310 308 306 303 303 305 304 303 302 300 299 298 297 296 293 292 289 285 284 281 279 279 276 275 273 271 270
330 330 332 331 331 331 331 331 330 327 325 324 322 320 319 318 315 313 312 311 309 309 311 311 309 306 302 300 299 297 295 294 292 287 285 282 281 281 279 278 278 276 274
327 326 327 328 329 328 328 329 327 325 324 323 322 322 322 322 321 320 318 315 313 312 314 316 315 311 306 304 303 301 297 295 294 292 287 285 283 281 280 279 279 278 277
323 323 324 325 326 326 326 327 326 325 325 323 321 321 323 323 323 323 320 318 317 316 316 316 315 316 312 309 307 303 300 298 297 295 290 287 286 284 282 281 281 280 279
320 320 320 321 322 324 325 326 326 326 326 325 322 321 321 321 321 320 321 320 319 318 317 316 317 317 315 312 309 307 304 301 299 297 293 291 289 286 285 284 282 281 280
318 318 318 318 320 323 326 327 326 326 326 324 323 323 322 322 321 320 320 321 320 319 319 318 318 317 315 313 310 309 306 304 302 301 297 294 292 291 289 287 284 282 281
317 319 320 321 321 323 325 327 327 327 325 325 324 322 322 322 321 320 320 320 321 320 320 320 320 320 318 314 311 310 309 306 304 302 301 298 297 297 293 289 286 284 283
314 316 317 319 320 323 325 326 326 326 325 323 322 321 322 325 324 324 323 321 321 322 323 323 324 323 322 318 315 313 312 310 309 307 305 303 300 298 296 292 290 289 287
314 315 316 317 319 321 323 324 324 325 324 324 322 321 322 325 325 323 324 324 325 326 327 327 326 326 325 322 319 317 316 314 312 310 308 306 305 303 302 300 298 294 292
314 316 316 317 318 319 320 322 323 323 322 322 321 322 322 323 324 324 324 325 327 328 328 330 330 329 328 326 323 320 318 318 317 314 311 310 310 309 306 304 302 299 297
314 315 316 316 318 319 319 320 322 322 322 322 321 321 322 324 324 324 325 325 326 328 328 330 332 333 333 333 328 323 321 320 319 317 312 311 310 309 307 305 304 303 302
313 314 313 314 316 318 319 321 322 322 322 322 321 319 320 322 324 325 325 326 327 327 328 329 330 332 332 332 329 325 323 321 318 317 316 314 311 308 306 307 305 303 302
310 310 311 313 315 317 320 322 323 323 324 323 321 320 321 323 324 324 325 326 326 326 328 329 329 330 329 331 329 325 325 325 323 322 320 316 312 309 308 309 310 307 303
308 309 310 312 314 316 319 321 322 323 322 321 320 319 321 322 324 325 325 326 327 328 328 328 329 330 329 328 329 327 327 326 325 324 323 319 314 312 311 312 311 308 303
305 308 309 311 313 317 319 321 323 323 323 322 320 319 320 321 322 323 325 326 327 328 329 329 328 328 328 327 329 328 327 326 323 322 322 323 320 317 314 313 310 309 307
303 306 308 309 311 315 318 321 322 323 324 324 321 320 320 321 322 322 323 323 323 324 327 328 328 328 328 326 327 329 328 328 327 324 323 323 324 322 319 315 312 310 309
303 305 306 308 310 313 316 318 320 322 323 323 322 321 321 322 323 323 322 323 324 324 326 327 327 329 329 327 327 330 330 328 328 327 325 325 325 324 322 320 318 315 311
301 303 305 308 310 313 314 316 318 321 323 323 322 321 321 321 321 321 322 323 324 325 325 326 327 329 330 329 329 330 330 330 331 331 331 330 329 328 325 322 320 320 317
Height
5762 5760 5758 5755 5753 5750 5748 5745 5743 5740 5738 5737 5736 5735 5734 5733 5732 5731 5730 5728 5727 5725 5724 5722 5721 5719 5717 5714 5712 5710 5709 5707 5707 5706 5705 5704 5704 5704 5703 5703 5703 5703 5703
5760 5757 5755 5752 5749 5746 5744 5741 5738 5736 5734 5732 5731 5730 5729 5728 5727 5725 5724 5722 5721 5719 5718 5716 5714 5712 5710 5707 5704 5702 5700 5699 5698 5698 5697 5696 5695 5695 5694 5694 5694 5694 5694
5758 5755 5752 5749 5746 5743 5740 5737 5734 5732 5729 5727 5726 5725 5724 5723 5721 5720 5718 5717 5715 5713 5712 5710 5708 5705 5703 5700 5697 5695 5693 5691 5690 5689 5688 5687 5686 5686 5685 5685 5685 5685 5685
5755 5753 5749 5746 5742 5740 5737 5734 5731 5728 5726 5724 5722 5720 5719 5717 5716 5715 5713 5711 5709 5707 5705 5703 5701 5699 5696 5693 5691 5688 5686 5684 5682 5681 5680 5679 5678 5677 5676 5676 5676 5676 5676
5753 5750 5747 5743 5740 5737 5734 5731 5727 5725 5723 5720 5718 5716 5715 5713 5711 5709 5707 5705 5703 5701 5699 5697 5694 5692 5689 5686 5683 5681 5678 5676 5674 5672 5671 5670 5669 5668 5668 5667 5667 5667 5667
5751 5748 5744 5741 5738 5734 5731 5728 5725 5722 5720 5717 5715 5712 5710 5708 5706 5704 5701 5699 5697 5695 5693 5690 5688 5685 5682 5679 5677 5674 5671 5668 5666 5665 5663 5662 5661 5660 5659 5658 5657 5657 5658
5749 5745 5742 5739 5735 5732 5729 5725 5722 5719 5717 5714 5711 5709 5706 5704 5701 5698 5696 5694 5692 5689 5687 5684 5681 5678 5676 5673 5670 5667 5663 5660 5659 5657 5655 5654 5653 5651 5651 5649 5649 5648 5649
5746 5743 5740 5736 5733 5729 5726 5723 5720 5717 5714 5711 5708 5705 5702 5699 5696 5694 5691 5688 5686 5683 5680 5678 5675 5672 5669 5666 5663 5660 5656 5654 5651 5649 5648 5646 5645 5644 5642 5641 5640 5640 5640
5744 5740 5737 5733 5730 5727 5724 5720 5717 5714 5711 5707 5704 5701 5698 5695 5692 5689 5687 5684 5681 5678 5675 5672 5669 5666 5663 5660 5657 5653 5650 5647 5645 5642 5640 5639 5637 5636 5635 5634 5633 5632 5632
5741 5738 5734 5730 5727 5724 5721 5718 5714 5711 5707 5704 5701 5697 5694 5691 5688 5685 5682 5679 5677 5673 5670 5666 5663 5660 5656 5653 5650 5647 5644 5641 5638 5636 5633 5632 5630 5628 5627 5626 5625 5624 5624
5738 5734 5731 5728 5724 5721 5718 5715 5711 5708 5704 5701 5698 5694 5691 5687 5684 5681 5678 5675 5672 5669 5665 5661 5658 5654 5650 5647 5643 5640 5637 5634 5631 5629 5626 5625 5623 5621 5620 5619 5618 5617 5616
5734 5731 5727 5724 5722 5718 5715 5712 5708 5704 5701 5697 5694 5690 5687 5684 5680 5677 5674 5670 5667 5664 5660 5657 5653 5649 5645 5641 5637 5634 5630 5627 5625 5622 5620 5618 5617 5615 5614 5612 5611 5610 5609
5730 5727 5724 5721 5719 5715 5712 5708 5704 5701 5697 5694 5690 5687 5683 5680 5676 5673 5670 5666 5662 5659 5655 5651 5647 5643 5639 5635 5631 5628 5624 5621 5619 5616 5614 5612 5611 5609 5607 5605 5604 5603 5601
5727 5723 5721 5718 5715 5711 5708 5704 5701 5697 5694 5690 5686 5683 5679 5675 5672 5669 5665 5662 5658 5654 5650 5646 5642 5638 5634 5629 5626 5622 5618 5615 5613 5610 5608 5606 5604 5602 5600 5599 5597 5596 5595
5723 5720 5717 5714 5711 5707 5704 5701 5697 5694 5690 5686 5683 5679 5675 5672 5668 5664 5661 5657 5653 5649 5645 5641 5637 5633 5628 5624 5620 5616 5613 5610 5607 5605 5602 5600 5598 5596 5594 5592 5591 5590 5588
5718 5716 5713 5710 5707 5703 5700 5697 5693 5690 5686 5682 5678 5675 5671 5667 5663 5660 5656 5652 5648 5644 5640 5636 5632 5628 5623 5619 5615 5611 5608 5605 5602 5600 5597 5595 5593 5591 5589 5587 5585 5584 5583
5714 5711 5708 5705 5702 5699 5696 5693 5689 5686 5682 5678 5674 5670 5666 5663 5659 5655 5652 5648 5644 5640 5636 5632 5628 5623 5619 5614 5610 5607 5603 5601 5598 5595 5593 5590 5588 5586 5584 5582 5580 5579 5577
5709 5706 5704 5701 5698 5695 5692 5688 5685 5681 5678 5674 5670 5666 5662 5659 5655 5651 5647 5643 5640 5636 5632 5628 5623 5619 5615 5610 5606 5603 5600 5597 5594 5591 5588 5586 5583 5581 5579 5577 5575 5574 5572
5705 5702 5700 5697 5694 5691 5688 5684 5681 5677 5673 5669 5666 5662 5658 5654 5651 5647 5643 5639 5635 5632 5628 5624 5620 5615 5611 5607 5603 5600 5596 5593 5591 5588 5585 5582 5579 5577 5575 5573 5571 5569 5567
5701 5698 5696 5693 5690 5687 5684 5680 5677 5673 5669 5664 5661 5657 5654 5650 5646 5643 5639 5635 5631 5627 5624 5620 5616 5612 5608 5604 5600 5597 5593 5590 5587 5584 5580 5578 5575 5573 5571 5569 5566 5564 5563
5697 5694 5691 5689 5685 5682 5679 5676 5672 5668 5664 5660 5656 5653 5649 5646 5642 5638 5634 5631 5627 5623 5620 5616 5612 5608 5605 5601 5597 5593 5590 5586 5583 5580 5577 5574 5571 5569 5566 5564 5562 5560 5558
5692 5690 5687 5684 5681 5678 5674 5671 5667 5663 5659 5655 5652 5648 5645 5641 5638 5634 5630 5627 5623 5619 5616 5612 5609 5605 5601 5597 5594 5590 5586 5583 5580 5577 5574 5570 5568 5565 5563 5561 5559 5556 5554
5688 5685 5682 5679 5676 5673 5669 5666 5662 5659 5655 5651 5647 5644 5640 5637 5633 5630 5626 5622 5619 5615 5612 5608 5604 5601 5597 5594 5590 5586 5583 5579 5576 5573 5570 5567 5564 5562 5559 5557 5555 5553 5551
5683 5680 5677 5674 5671 5668 5665 5661 5658 5654 5650 5647 5643 5639 5636 5633 5629 5626 5622 5618 5615 5611 5608 5604 5601 5597 5593 5590 5586 5583 5579 5576 5573 5570 5567 5564 5561 5558 5556 5554 5552 5549 5547
5677 5675 5672 5669 5666 5663 5660 5657 5653 5650 5646 5643 5639 5635 5632 5628 5625 5621 5618 5614 5611 5607 5604 5600 5597 5593 5590 5586 5583 5580 5577 5573 5570 5567 5564 5561 5558 5555 5553 5551 5548 5546 5544
5672 5669 5666 5664 5661 5658 5655 5652 5648 5645 5642 5638 5635 5631 5628 5624 5621 5617 5614 5610 5607 5603 5600 5596 5593 5589 5586 5583 5580 5577 5573 5570 5567 5564 5561 5558 5555 5553 5550 5548 5545 5543 5540